Location: Unspecified
(27.8757°N, 0.0000°E)
Time: 13:54:25
(UTC+00:00)

Explorer 7 - Visible Passes

Search period start: 04 April 2026 00:00
Search period end: 14 April 2026 00:00
Orbit: 429 x 539 km, 50.2° (Epoch: 29 March)

Date Brightness Start Highest point End Pass type
(mag) Time Alt. Az. Time Alt. Az. Time Alt. Az.
4 Apr 9.4 03:24:55 16° ENE 03:24:55 16° ENE 03:26:15 10° E visible
4 Apr 7.1 04:59:17 12° WNW 05:02:06 33° SW 05:05:13 10° SSE visible
4 Apr 8.0 20:13:00 10° WSW 20:16:48 38° NW 20:17:34 34° NNW visible
5 Apr 6.9 04:35:01 37° SW 04:35:05 37° SW 04:38:18 10° SSE visible
5 Apr 7.9 19:45:51 10° WSW 19:49:42 42° NW 19:53:13 12° NNE visible
6 Apr 8.9 04:10:55 13° SSE 04:10:55 13° SSE 04:11:19 10° SSE visible
6 Apr 7.8 19:18:40 10° WSW 19:22:35 45° NW 19:26:28 10° NNE visible
7 Apr 7.7 18:51:29 10° WSW 18:55:26 50° NW 18:59:23 10° NNE visible
11 Apr 9.9 18:44:31 10° NW 18:45:28 11° NNW 18:46:25 10° NNW visible
